Regional Weather Roundup
Issued by NWS

Home | Current Version | Previous Version | Text Only | Print | Product List | Glossary On
Versions: 1 2 3 4 5 6 7 8 9 10 11 12 13 14 15 16 17 18 19 20 21 22 23 24 25 26 27 28 29 30 31 32 33 34 35 36 37 38 39 40 41 42 43 44 45 46 47 48 49 50
000
ASUS45 KABQ 032010
RWRNM
WEATHER ROUNDUP FOR NEW MEXICO
NATIONAL WEATHER SERVICE ALBUQUERQUE NM
100 PM MST TUE MAR 03 2015

NOTE: "FAIR" MEANS FEW OR NO CLOUDS BELOW 12,000 FEET AGL WITH NO
       SIGNIFICANT WEATHER OR OBSTRUCTIONS TO VISION.

      THIS PRODUCT IS RELEASED AS TWO VERSIONS.  ONE VERSION NEAR
      THE TOP OF THE HOUR CONTAINING PRELIMINARY DATA FROM ALBUQUERQUE
      AND OTHER STATIONS.  A FINAL VERSION WITH ADDITIONAL DATA IS
      ISSUED ABOUT 10 MINUTES AFTER THE HOUR.

NMZ501-503-504-510>518-032100-
NORTHWEST PLATEAU/NORTHCENTRAL MOUNTAINS

CITY           SKY/WX    TMP DP  RH WIND       PRES   REMARKS
FARMINGTON     CLOUDY    43  28  55 NW10      29.83F
LOS ALAMOS     FAIR      43  11  27 S16       29.82F
SANTA FE       PTSUNNY   43  25  49 VRB7G17   29.83F
TAOS           FAIR      37  19  48 SW8       29.82F WCI  31
ANGEL FIRE     FAIR      34  19  54 W10G21    29.78F WCI  26

$$
NMZ402-403-502-505>509-032100-
WESTCENTRAL MOUNTAINS/SOUTHWEST MOUNTAINS

CITY           SKY/WX    TMP DP  RH WIND       PRES   REMARKS
GALLUP         CLOUDY    38  28  67 W14       29.86F WCI  30
GRANTS         FAIR      46  19  32 SW13G28   29.87F
SILVER CITY    FAIR      54  25  32 W18G29    29.91F

$$
NMZ407-409-411-412-032100-
SOUTHERN DESERTS

CITY           SKY/WX    TMP DP  RH WIND       PRES   REMARKS
LORDSBURG      FAIR      55  36  47 W8G20     29.89F
DEMING         CLOUDY    54  44  69 SW14      29.90F
LAS CRUCES     PTSUNNY   54  45  72 SW9       29.91F
HOLLOMAN AFB   PTSUNNY   55  48  76 SW10      29.88F
ALAMOGORDO     FAIR      55  45  67 S8        29.90S
T OR C         FAIR      58  40  51 S17G23    29.83F

$$
NMZ519>523-032100-
CENTRAL VALLEYS/CENTRAL HIGHLANDS

CITY           SKY/WX    TMP DP  RH WIND       PRES   REMARKS
ALBUQUERQUE    FAIR      48  27  44 CALM      29.84F
MORIARTY ARPT  FAIR      52  31  44 W18       29.84F
CLINES CORNERS FAIR      46  30  53 W18G29    29.80F
BELEN          FAIR      52  33  48 S5        29.83F
SOCORRO          N/A     57  39  49 S16G28    29.82F

$$
NMZ524>526-539-540-032100-
SOUTHCENTRAL MOUNTAINS

CITY           SKY/WX    TMP DP  RH WIND       PRES   REMARKS
RUIDOSO        FAIR      48  37  66 SW21G29   29.88F

$$
NMZ527>531-032100-
NORTHEAST HIGHLANDS/NORTHEAST PLAINS

CITY           SKY/WX    TMP DP  RH WIND       PRES   REMARKS
LAS VEGAS      FAIR      44  22  41 SW22G32   29.78F
RATON          FAIR      51  20  29 S17G25    29.72F
CLAYTON        FAIR      51  25  36 SW9       29.76F

$$
NMZ532>537-032100-
EASTCENTRAL PLAINS

CITY           SKY/WX    TMP DP  RH WIND       PRES   REMARKS
TUCUMCARI      CLOUDY    55  32  41 W10       29.78F
CANNON AFB     DRIZZLE   51  40  67 W9        29.83F
CLOVIS AIRPORT CLOUDY    52  39  62 W14       29.84F

$$
NMZ028-029-538-032100-
SOUTHEAST PLAINS

CITY           SKY/WX    TMP DP  RH WIND       PRES   REMARKS
ROSWELL        PTSUNNY   52  40  63 N3        29.85F
ARTESIA        DRIZZLE   45  45 100 CALM      29.88F
CARLSBAD       PTSUNNY   52  39  61 NW17      29.85F
HOBBS          MOSUNNY   55  45  67 NE5       29.86F


$$



USA.gov is the U.S. government's official web portal to all federal, state and local government web resources and services.